Weather History for Big Rapids, MI

Change the Weather History Date:

Friday, July 5, 2013

  Actual Average Record
Temperature  
Mean Temperature 69 °F -  
Max Temperature 82 °F 81 °F 97 °F (1988)
Min Temperature 56 °F 54 °F 42 °F (1979)
Cooling Degree Days 4    
Growing Degree Days 19 (Base 50)    
Moisture  
Dew Point 58 °F    
Average Humidity 70    
Maximum Humidity 96    
Minimum Humidity 41    
Precipitation  
Precipitation 0.00 in - - ()
Sea Level Pressure  
Sea Level Pressure 30.08 in    
Wind  
Wind Speed 2 mph (SW)    
Max Wind Speed 9 mph    
Max Gust Speed 16 mph    
Visibility 8 miles    
Events      
Averages and records for this station are not official NWS values.
T = Trace of Precipitation, MM = Missing Value Source: NWS Daily Summary

Daily Weather History Graph

Daily Weather History Graph

Search for Another Location

Airport:

Trip Planner

Search our weather history database for the weather conditions in past years. The results will help you decide how hot, cold, wet, or windy it might be!

Date:

Astronomy

Jul. 05, 2013 Rise Set
Actual Time 6:06 AM EDT 9:26 PM EDT
Civil Twilight 5:30 AM EDT 10:01 PM EDT
Nautical Twilight 4:44 AM EDT 10:48 PM EDT
Astronomical Twilight 3:47 AM EDT 11:45 PM EDT
Moon 4:07 AM EDT (7/5) 7:19 PM EDT (7/5)
Length of Visible Light 16h 30m
Length of Day
15h 19m
Waning Crescent, 6% of the Moon is Illuminated
Jul 5
Waning Crescent
Jul 8
New
Jul 15
First Quarter
Jul 22
Full
Jul 29
Last Quarter

Hourly Weather History & Observations

Time (EDT) Temp. Heat Index Dew Point Humidity Pressure Visibility Wind Dir Wind Speed Gust Speed Precip Events Conditions
12:15 AM 59.9 °F - 58.3 °F 94% 30.09 in 7.0 mi Calm Calm - N/A   Clear
12:34 AM 59.9 °F - 57.6 °F 92% 30.09 in 5.0 mi Calm Calm - N/A   Clear
12:55 AM 60.3 °F - 58.1 °F 93% 30.09 in 5.0 mi Calm Calm - N/A   Clear
1:15 AM 59.9 °F - 57.6 °F 92% 30.09 in 7.0 mi Calm Calm - N/A   Clear
1:35 AM 59.7 °F - 57.4 °F 92% 30.09 in 7.0 mi Calm Calm - N/A   Clear
1:55 AM 58.5 °F - 56.7 °F 94% 30.09 in 5.0 mi Calm Calm - N/A   Clear
2:15 AM 59.0 °F - 57.2 °F 94% 30.09 in 4.0 mi Calm Calm - N/A   Clear
2:35 AM 58.3 °F - 56.5 °F 94% 30.09 in 5.0 mi Calm Calm - N/A   Clear
2:55 AM 58.1 °F - 56.3 °F 94% 30.09 in 3.0 mi Calm Calm - N/A   Clear
3:15 AM 58.3 °F - 56.8 °F 95% 30.09 in 2.0 mi Calm Calm - N/A   Clear
3:35 AM 58.3 °F - 56.8 °F 95% 30.09 in 5.0 mi Calm Calm - N/A   Clear
3:55 AM 57.7 °F - 56.1 °F 94% 30.08 in 4.0 mi Calm Calm - N/A   Clear
4:15 AM 57.7 °F - 56.3 °F 95% 30.08 in 3.0 mi Calm Calm - N/A   Clear
4:35 AM 58.3 °F - 56.7 °F 94% 30.08 in 4.0 mi Calm Calm - N/A   Clear
4:55 AM 57.4 °F - 55.8 °F 94% 30.08 in 3.0 mi Calm Calm - N/A   Clear
5:15 AM 57.4 °F - 55.8 °F 94% 30.08 in 3.0 mi Calm Calm - N/A   Clear
5:35 AM 57.4 °F - 55.9 °F 95% 30.09 in 3.0 mi Calm Calm - N/A   Clear
5:55 AM 57.2 °F - 55.6 °F 94% 30.09 in 2.5 mi Calm Calm - N/A   Clear
6:15 AM 57.7 °F - 56.1 °F 94% 30.09 in 2.5 mi Calm Calm - N/A   Clear
6:35 AM 56.7 °F - 55.2 °F 95% 30.10 in 1.2 mi Calm Calm - N/A   Mist
6:55 AM 57.4 °F - 56.3 °F 96% 30.10 in 1.5 mi Calm Calm - N/A   Scattered Clouds
7:15 AM 59.5 °F - 58.5 °F 96% 30.10 in 2.5 mi Calm Calm - N/A   Mostly Cloudy
7:35 AM 60.8 °F - 59.4 °F 95% 30.10 in 2.5 mi Calm Calm - N/A   Mostly Cloudy
7:55 AM 60.8 °F - 59.5 °F 96% 30.10 in 2.5 mi Calm Calm - N/A   Mostly Cloudy
8:15 AM 61.7 °F - 60.4 °F 96% 30.10 in 2.5 mi Calm Calm - N/A   Mostly Cloudy
8:35 AM 63.1 °F - 61.7 °F 95% 30.11 in 3.0 mi SE 3.5 mph - N/A   Mostly Cloudy
8:55 AM 65.5 °F - 63.1 °F 92% 30.11 in 4.0 mi Calm Calm - N/A   Mostly Cloudy
9:15 AM 67.3 °F - 63.3 °F 87% 30.12 in 5.0 mi Calm Calm - N/A   Scattered Clouds
9:35 AM 71.6 °F - 63.0 °F 74% 30.12 in 10.0 mi Calm Calm - N/A   Clear
9:55 AM 72.9 °F - 59.4 °F 62% 30.12 in 10.0 mi West 4.6 mph - N/A   Scattered Clouds
10:15 AM 73.9 °F - 58.8 °F 59% 30.11 in 10.0 mi West 9.2 mph - N/A   Clear
10:35 AM 74.8 °F - 57.7 °F 55% 30.11 in 10.0 mi West 9.2 mph - N/A   Clear
10:55 AM 75.6 °F - 58.1 °F 55% 30.11 in 10.0 mi West 9.2 mph - N/A   Clear
11:15 AM 75.2 °F - 58.6 °F 56% 30.11 in 10.0 mi WSW 8.1 mph - N/A   Clear
11:34 AM 76.1 °F - 58.5 °F 54% 30.11 in 10.0 mi SW 9.2 mph - N/A   Clear
11:55 AM 76.5 °F - 58.3 °F 53% 30.12 in 10.0 mi West 6.9 mph - N/A   Clear
12:15 PM 77.7 °F - 58.8 °F 52% 30.11 in 10.0 mi West 5.8 mph - N/A   Clear
12:34 PM 78.4 °F - 57.9 °F 49% 30.11 in 10.0 mi West 5.8 mph - N/A   Clear
12:55 PM 78.8 °F - 58.1 °F 49% 30.11 in 10.0 mi SSW 5.8 mph - N/A   Scattered Clouds
1:15 PM 79.5 °F - 58.8 °F 49% 30.11 in 10.0 mi WSW 5.8 mph - N/A   Scattered Clouds
1:34 PM 79.7 °F - 58.5 °F 48% 30.10 in 10.0 mi South 6.9 mph - N/A   Scattered Clouds
1:55 PM 80.6 °F 80.9 °F 58.1 °F 46% 30.10 in 10.0 mi SW 5.8 mph - N/A   Scattered Clouds
2:15 PM 80.8 °F 81.0 °F 57.6 °F 45% 30.09 in 10.0 mi South 8.1 mph - N/A   Mostly Cloudy
2:34 PM 80.6 °F 80.8 °F 57.4 °F 45% 30.09 in 10.0 mi SSW 5.8 mph - N/A   Mostly Cloudy
2:55 PM 81.9 °F 81.7 °F 57.6 °F 43% 30.09 in 10.0 mi West 9.2 mph - N/A   Mostly Cloudy
3:15 PM 79.7 °F - 56.5 °F 45% 30.08 in 10.0 mi SSW 9.2 mph - N/A   Scattered Clouds
3:34 PM 80.8 °F 80.8 °F 56.5 °F 43% 30.08 in 10.0 mi SSW 8.1 mph - N/A   Scattered Clouds
3:55 PM 82.2 °F 82.0 °F 57.7 °F 43% 30.07 in 10.0 mi SW 9.2 mph - N/A   Scattered Clouds
4:15 PM 80.4 °F 80.6 °F 56.5 °F 44% 30.07 in 10.0 mi South 6.9 mph 16.1 mph N/A   Scattered Clouds
4:35 PM 82.0 °F 81.8 °F 57.7 °F 43% 30.06 in 10.0 mi SW 5.8 mph - N/A   Scattered Clouds
4:55 PM 81.9 °F 81.7 °F 57.4 °F 43% 30.06 in 10.0 mi SW 8.1 mph - N/A   Scattered Clouds
5:15 PM 82.0 °F 81.8 °F 57.7 °F 43% 30.06 in 10.0 mi SSW 8.1 mph - N/A   Scattered Clouds
5:35 PM 81.5 °F 81.5 °F 57.6 °F 44% 30.05 in 10.0 mi South 6.9 mph - N/A   Scattered Clouds
5:55 PM 81.5 °F 81.1 °F 55.6 °F 41% 30.05 in 10.0 mi SW 6.9 mph - N/A   Scattered Clouds
6:15 PM 81.0 °F 80.8 °F 55.9 °F 42% 30.04 in 10.0 mi South 6.9 mph - N/A   Clear
6:35 PM 81.0 °F 80.9 °F 56.7 °F 43% 30.05 in 10.0 mi SW 6.9 mph - N/A   Clear
6:55 PM 80.6 °F 80.7 °F 56.7 °F 44% 30.05 in 10.0 mi SSW 6.9 mph - N/A   Clear
7:15 PM 80.2 °F 80.5 °F 56.8 °F 45% 30.04 in 10.0 mi SW 6.9 mph - N/A   Clear
7:35 PM 79.7 °F - 58.6 °F 48% 30.04 in 10.0 mi SW 4.6 mph - N/A   Clear
7:55 PM 78.8 °F - 57.9 °F 49% 30.04 in 10.0 mi SW 5.8 mph - N/A   Clear
8:15 PM 77.9 °F - 59.0 °F 52% 30.04 in 10.0 mi SW 3.5 mph - N/A   Clear
8:35 PM 76.3 °F - 60.1 °F 57% 30.05 in 10.0 mi Calm Calm - N/A   Clear
8:55 PM 74.3 °F - 62.1 °F 65% 30.05 in 10.0 mi Calm Calm - N/A   Clear
9:15 PM 71.2 °F - 61.5 °F 71% 30.05 in 10.0 mi SW 3.5 mph - N/A   Clear
9:35 PM 69.6 °F - 61.2 °F 74% 30.06 in 10.0 mi WSW 4.6 mph - N/A   Clear
9:55 PM 68.7 °F - 60.8 °F 76% 30.06 in 10.0 mi West 3.5 mph - N/A   Clear
10:15 PM 68.0 °F - 60.4 °F 77% 30.07 in 10.0 mi West 3.5 mph - N/A   Clear
10:35 PM 67.1 °F - 59.9 °F 78% 30.08 in 10.0 mi Calm Calm - N/A   Clear
10:55 PM 66.4 °F - 59.2 °F 78% 30.08 in 10.0 mi Calm Calm - N/A   Clear
11:14 PM 66.0 °F - 62.1 °F 87% 30.08 in 10.0 mi Calm Calm - N/A   Clear
11:35 PM 65.1 °F - 61.0 °F 86% 30.08 in 10.0 mi Calm Calm - N/A   Clear
11:55 PM 64.4 °F - 61.0 °F 89% 30.08 in 7.0 mi Calm Calm - N/A   Clear